• In Portugal
  • List of Countries
  • For 7 days
  • Water Temperature
  • Satellite Maps
  • Weather Map
  • Weather Widgets
  • user-avatar
    Login

    Hourly Weather Salyan

    Today, 11 December, Monday

    Time Temperature Precipitation Wind Pressure Humidity
    00:00 +12°C° 0 mm 2 mps 653 mmHg 48%
    01:00 +12°C° 0 mm 2 mps 653 mmHg 45%
    02:00 +12°C° 0 mm 2 mps 652 mmHg 42%
    03:00 +12°C° 0 mm 2 mps 652 mmHg 40%
    04:00 +12°C° 0 mm 2 mps 652 mmHg 38%
    05:00 +12°C° 0 mm 2 mps 652 mmHg 32%
    06:00 +13°C° 0 mm 1 mps 653 mmHg 33%
    07:00 +15°C° 0 mm 1 mps 654 mmHg 34%
    08:00 +16°C° 0 mm 1 mps 654 mmHg 34%
    09:00 +19°C° 0 mm 1 mps 655 mmHg 33%
    10:00 +21°C° 0 mm 1 mps 655 mmHg 32%
    11:00 +23°C° 0 mm 1 mps 655 mmHg 30%
    12:00 +23°C° 0 mm 1 mps 655 mmHg 32%
    13:00 +23°C° 0 mm 2 mps 654 mmHg 34%
    14:00 +23°C° 0 mm 2 mps 654 mmHg 37%
    15:00 +20°C° 0 mm 1 mps 653 mmHg 47%
    16:00 +16°C° 0 mm 1 mps 653 mmHg 58%
    17:00 +13°C° 0 mm 0 mps 652 mmHg 69%
    18:00 +13°C° 0 mm 1 mps 652 mmHg 68%
    19:00 +13°C° 0 mm 1 mps 653 mmHg 68%
    20:00 +12°C° 0 mm 1 mps 653 mmHg 67%
    21:00 +12°C° 0 mm 1 mps 653 mmHg 64%
    22:00 +12°C° 0 mm 1 mps 653 mmHg 61%
    23:00 +12°C° 0 mm 1 mps 653 mmHg 58%

    Tomorrow, 12 December, Tuesday

    Time Temperature Precipitation Wind Pressure Humidity
    00:00 +11°C° 0 mm 1 mps 653 mmHg 55%
    01:00 +11°C° 0 mm 1 mps 652 mmHg 51%
    02:00 +11°C° 0 mm 1 mps 652 mmHg 48%
    03:00 +10°C° 0 mm 2 mps 652 mmHg 44%
    04:00 +10°C° 0 mm 2 mps 652 mmHg 41%
    05:00 +9°C° 0 mm 2 mps 652 mmHg 38%
    06:00 +12°C° 0 mm 1 mps 653 mmHg 36%
    07:00 +13°C° 0 mm 1 mps 654 mmHg 34%
    08:00 +15°C° 0 mm 1 mps 655 mmHg 31%
    09:00 +15°C° 0 mm 2 mps 655 mmHg 34%
    10:00 +16°C° 0 mm 2 mps 655 mmHg 36%
    11:00 +17°C° 0 mm 3 mps 655 mmHg 38%
    12:00 +18°C° 0 mm 2 mps 655 mmHg 36%
    13:00 +18°C° 0 mm 2 mps 655 mmHg 34%
    14:00 +20°C° 0 mm 1 mps 654 mmHg 31%
    15:00 +18°C° 0 mm 1 mps 654 mmHg 36%
    16:00 +16°C° 0 mm 1 mps 653 mmHg 40%
    17:00 +14°C° 0 mm 1 mps 653 mmHg 44%
    18:00 +13°C° 0 mm 1 mps 653 mmHg 44%
    19:00 +13°C° 0 mm 1 mps 653 mmHg 44%
    20:00 +12°C° 0 mm 2 mps 653 mmHg 44%
    21:00 +10°C° 0 mm 2 mps 653 mmHg 43%
    22:00 +10°C° 0 mm 2 mps 653 mmHg 42%
    23:00 +10°C° 0 mm 2 mps 653 mmHg 41%

    Day after tomorrow, 13 December, Wednesday

    Time Temperature Precipitation Wind Pressure Humidity
    00:00 +10°C° 0 mm 2 mps 653 mmHg 39%
    01:00 +10°C° 0 mm 2 mps 653 mmHg 38%
    02:00 +9°C° 0 mm 2 mps 653 mmHg 36%
    03:00 +9°C° 0 mm 2 mps 652 mmHg 35%
    04:00 +9°C° 0 mm 2 mps 652 mmHg 34%
    05:00 +9°C° 0 mm 2 mps 652 mmHg 34%
    06:00 +10°C° 0 mm 2 mps 653 mmHg 33%
    07:00 +13°C° 0 mm 1 mps 654 mmHg 32%
    08:00 +14°C° 0 mm 1 mps 654 mmHg 32%
    09:00 +16°C° 0 mm 1 mps 655 mmHg 29%
    10:00 +20°C° 0 mm 1 mps 655 mmHg 27%
    11:00 +22°C° 0 mm 1 mps 656 mmHg 25%
    12:00 +21°C° 0 mm 2 mps 655 mmHg 27%
    13:00 +20°C° 0 mm 2 mps 654 mmHg 28%
    14:00 +20°C° 0 mm 2 mps 654 mmHg 29%
    15:00 +17°C° 0 mm 2 mps 653 mmHg 38%
    16:00 +15°C° 0 mm 1 mps 653 mmHg 46%
    17:00 +12°C° 0 mm 1 mps 652 mmHg 55%
    18:00 +12°C° 0 mm 1 mps 653 mmHg 54%
    19:00 +11°C° 0 mm 1 mps 653 mmHg 54%
    20:00 +10°C° 0 mm 2 mps 654 mmHg 54%
    21:00 +10°C° 0 mm 2 mps 654 mmHg 51%
    22:00 +12°C° 0 mm 2 mps 654 mmHg 48%
    23:00 +12°C° 0 mm 2 mps 654 mmHg 45%

    14 December, Thursday

    Time Temperature Precipitation Wind Pressure Humidity
    00:00 +12°C° 0 mm 2 mps 654 mmHg 44%
    01:00 +12°C° 0 mm 2 mps 653 mmHg 43%
    02:00 +12°C° 0 mm 2 mps 653 mmHg 42%
    03:00 +12°C° 0.1 mm 2 mps 653 mmHg 44%
    04:00 +12°C° 0.1 mm 2 mps 653 mmHg 46%
    05:00 +10°C° 0.1 mm 2 mps 653 mmHg 48%
    06:00 +12°C° 0 mm 2 mps 653 mmHg 47%
    07:00 +13°C° 0 mm 2 mps 654 mmHg 45%
    08:00 +14°C° 0 mm 1 mps 655 mmHg 44%
    09:00 +16°C° 0 mm 1 mps 656 mmHg 38%
    10:00 +20°C° 0 mm 1 mps 657 mmHg 31%
    11:00 +22°C° 0 mm 1 mps 657 mmHg 25%
    12:00 +22°C° 0 mm 1 mps 657 mmHg 27%
    13:00 +20°C° 0 mm 2 mps 656 mmHg 28%
    14:00 +20°C° 0 mm 2 mps 656 mmHg 29%
    15:00 +18°C° 0 mm 2 mps 655 mmHg 36%
    16:00 +15°C° 0 mm 1 mps 655 mmHg 43%
    17:00 +13°C° 0 mm 1 mps 654 mmHg 50%
    18:00 +12°C° 0 mm 1 mps 655 mmHg 47%
    19:00 +10°C° 0 mm 2 mps 655 mmHg 44%
    20:00 +10°C° 0 mm 2 mps 656 mmHg 41%
    21:00 +9°C° 0 mm 2 mps 655 mmHg 36%
    22:00 +9°C° 0 mm 2 mps 655 mmHg 31%
    23:00 +8°C° 0 mm 2 mps 655 mmHg 26%

    15 December, Friday

    Time Temperature Precipitation Wind Pressure Humidity
    00:00 +8°C° 0 mm 2 mps 654 mmHg 23%
    01:00 +8°C° 0 mm 2 mps 654 mmHg 20%
    02:00 +8°C° 0 mm 2 mps 653 mmHg 16%
    03:00 +7°C° 0 mm 2 mps 653 mmHg 15%
    04:00 +7°C° 0 mm 2 mps 653 mmHg 13%
    05:00 +7°C° 0 mm 2 mps 653 mmHg 12%
    06:00 +9°C° 0 mm 2 mps 654 mmHg 14%
    07:00 +10°C° 0 mm 2 mps 654 mmHg 17%
    08:00 +13°C° 0 mm 2 mps 655 mmHg 19%
    09:00 +15°C° 0 mm 2 mps 656 mmHg 17%
    10:00 +18°C° 0 mm 2 mps 656 mmHg 14%
    11:00 +21°C° 0 mm 2 mps 657 mmHg 12%
    12:00 +20°C° 0 mm 2 mps 656 mmHg 14%
    13:00 +20°C° 0 mm 2 mps 656 mmHg 15%
    14:00 +20°C° 0 mm 3 mps 655 mmHg 17%
    15:00 +17°C° 0 mm 2 mps 655 mmHg 23%
    16:00 +14°C° 0 mm 2 mps 654 mmHg 29%
    17:00 +12°C° 0 mm 1 mps 654 mmHg 35%
    18:00 +10°C° 0 mm 2 mps 654 mmHg 33%
    19:00 +9°C° 0 mm 2 mps 654 mmHg 32%
    20:00 +9°C° 0 mm 2 mps 655 mmHg 30%
    21:00 +8°C° 0 mm 2 mps 655 mmHg 28%
    22:00 +8°C° 0 mm 2 mps 654 mmHg 26%
    23:00 +8°C° 0 mm 2 mps 654 mmHg 24%

    16 December, Saturday

    Time Temperature Precipitation Wind Pressure Humidity
    00:00 +8°C° 0 mm 2 mps 654 mmHg 22%
    01:00 +8°C° 0 mm 2 mps 654 mmHg 21%
    02:00 +7°C° 0 mm 2 mps 653 mmHg 19%
    03:00 +7°C° 0 mm 2 mps 653 mmHg 18%
    04:00 +7°C° 0 mm 2 mps 653 mmHg 17%
    05:00 +7°C° 0 mm 2 mps 653 mmHg 16%
    06:00 +9°C° 0 mm 2 mps 654 mmHg 18%
    07:00 +10°C° 0 mm 2 mps 654 mmHg 20%
    08:00 +13°C° 0 mm 1 mps 655 mmHg 22%
    09:00 +15°C° 0 mm 2 mps 656 mmHg 19%
    10:00 +18°C° 0 mm 2 mps 656 mmHg 16%
    11:00 +20°C° 0 mm 2 mps 657 mmHg 14%
    12:00 +20°C° 0 mm 2 mps 656 mmHg 15%
    13:00 +20°C° 0 mm 2 mps 656 mmHg 17%
    14:00 +20°C° 0 mm 2 mps 655 mmHg 18%
    15:00 +17°C° 0 mm 2 mps 655 mmHg 25%
    16:00 +14°C° 0 mm 1 mps 654 mmHg 31%
    17:00 +11°C° 0 mm 1 mps 654 mmHg 38%
    18:00 +11°C° 0 mm 1 mps 654 mmHg 36%
    19:00 +9°C° 0 mm 2 mps 654 mmHg 35%
    20:00 +9°C° 0 mm 2 mps 655 mmHg 33%
    21:00 +9°C° 0 mm 2 mps 655 mmHg 31%
    22:00 +9°C° 0 mm 2 mps 655 mmHg 28%
    23:00 +9°C° 0 mm 2 mps 655 mmHg 26%
    Show more